FW2530 Weather Reports


Display with metric or nautical units.
time (UTC)temp
F
wind
direction
speed
MPH
gust
MPH
rain 1hr
in
rain 24hr
in
rain mn
in
humidity
%
barometer
mb
20260504082004 48 360 2.0 11.0 0.00 0.00 0.00 78 1004.9
20260504081504 48 360 2.0 5.0 0.00 0.00 0.00 78 1005.0
20260504081003 48 360 1.0 7.0 0.00 0.00 0.00 77 1005.0
20260504080503 48 360 2.0 5.0 0.00 0.00 0.00 77 1005.1
20260504050503 52 360 4.0 11.0 0.00 0.00 0.00 71 1007.2
20260504050004 52 360 4.0 8.0 0.00 0.00 0.00 71 1007.3
20260504045503 52 351 4.0 12.0 0.00 0.00 0.00 71 1007.3
20260504045003 52 328 5.0 8.0 0.00 0.00 0.00 71 1007.2
20260504044504 52 350 5.0 12.0 0.00 0.00 0.00 71 1007.3
20260504044027 52 360 4.0 12.0 0.00 0.00 0.00 71 1007.2
20260504043529 52 360 3.0 12.0 0.00 0.00 0.00 71 1007.3
20260504043003 52 360 2.0 7.0 0.00 0.00 0.00 71 1007.3
20260504042503 52 360 2.0 7.0 0.00 0.00 0.00 71 1007.3
20260504042007 52 360 2.0 5.0 0.00 0.00 0.00 71 1007.3
20260504041507 52 360 2.0 5.0 0.00 0.00 0.00 71 1007.4
20260504041028 52 360 3.0 7.0 0.00 0.00 0.00 71 1007.4
20260504040508 52 360 3.0 11.0 0.00 0.00 0.00 71 1007.4
20260504040007 53 360 3.0 11.0 0.00 0.00 0.00 71 1007.6
20260504035507 53 360 4.0 11.0 0.00 0.00 0.00 71 1007.6
20260504035007 53 360 4.0 15.0 0.00 0.00 0.00 71 1007.6
20260504034507 53 360 3.0 12.0 0.00 0.00 0.00 71 1007.7
20260504034007 53 360 3.0 8.0 0.00 0.00 0.00 70 1007.8
20260504033529 53 360 3.0 11.0 0.00 0.00 0.00 70 1007.8
20260504033029 54 360 4.0 8.0 0.00 0.00 0.00 70 1007.8
20260504032507 54 360 5.0 16.0 0.00 0.00 0.00 70 1007.9
20260504032007 54 360 4.0 16.0 0.00 0.00 0.00 70 1007.9
20260504031507 54 360 4.0 11.0 0.00 0.00 0.00 69 1008.0
20260504031007 54 360 5.0 16.0 0.00 0.00 0.00 69 1008.1
20260504030507 55 360 5.0 16.0 0.00 0.00 0.00 69 1008.1
20260504030007 55 360 6.0 17.0 0.00 0.00 0.00 69 1008.1
20260504025507 55 360 7.0 24.0 0.00 0.00 0.00 69 1008.1
20260504025028 55 360 7.0 19.0 0.00 0.00 0.00 69 1008.1
20260504024508 55 360 6.0 29.0 0.00 0.00 0.00 69 1008.1
20260504024007 55 360 6.0 19.0 0.00 0.00 0.00 69 1008.1
20260504023507 55 360 6.0 16.0 0.00 0.00 0.00 69 1008.0
20260504023007 55 360 5.0 20.0 0.00 0.00 0.00 68 1008.1
20260504022507 55 360 5.0 27.0 0.00 0.00 0.00 68 1008.1
20260504022007 55 360 5.0 15.0 0.00 0.00 0.00 67 1008.0
20260504021507 55 360 4.0 15.0 0.00 0.00 0.00 66 1008.1
20260504021007 55 360 4.0 15.0 0.00 0.00 0.00 66 1008.0
20260504020507 55 360 4.0 16.0 0.00 0.00 0.00 66 1008.0
20260504020007 55 360 3.0 17.0 0.00 0.00 0.00 64 1007.8
20260504015507 56 360 3.0 13.0 0.00 0.00 0.00 64 1007.9
20260504015007 56 360 2.0 5.0 0.00 0.00 0.00 63 1007.8
20260504014507 56 360 3.0 11.0 0.00 0.00 0.00 63 1007.8
20260504014007 56 360 3.0 13.0 0.00 0.00 0.00 63 1007.7
20260504013507 56 360 2.0 7.0 0.00 0.00 0.00 62 1007.7
20260504013007 56 360 2.0 8.0 0.00 0.00 0.00 62 1007.6
20260504012528 56 360 2.0 5.0 0.00 0.00 0.00 61 1007.5
20260504012007 57 360 2.0 11.0 0.00 0.00 0.00 61 1007.5
20260504011507 57 360 2.0 15.0 0.00 0.00 0.00 60 1007.4
20260504011007 57 360 2.0 8.0 0.00 0.00 0.00 60 1007.5
20260504010507 57 360 3.0 11.0 0.00 0.00 0.00 59 1007.4
20260504010007 57 360 4.0 12.0 0.00 0.00 0.00 59 1007.4
20260504005528 57 360 4.0 11.0 0.00 0.00 0.00 59 1007.4
20260504005007 57 360 4.0 12.0 0.00 0.00 0.00 58 1007.4
20260504004507 58 360 5.0 15.0 0.00 0.00 0.00 58 1007.3
20260504004007 58 360 5.0 17.0 0.00 0.00 0.00 58 1007.3
20260504003507 58 1 5.0 12.0 0.00 0.00 0.00 58 1007.3
20260504003007 58 1 4.0 15.0 0.00 0.00 0.00 58 1007.2
20260504002507 58 360 4.0 13.0 0.00 0.00 0.00 58 1007.2
20260504002007 58 360 5.0 15.0 0.00 0.00 0.00 58 1007.1
20260504001507 58 360 6.0 17.0 0.00 0.00 0.00 57 1007.0
20260504001007 58 360 5.0 16.0 0.00 0.00 0.00 57 1007.0
20260504000507 58 360 4.0 16.0 0.00 0.00 0.00 57 1007.0
20260504000007 59 360 5.0 15.0 0.00 0.00 0.00 57 1007.0
20260503235507 59 360 6.0 13.0 0.00 0.00 0.00 57 1007.1
20260503235007 59 360 4.0 17.0 0.00 0.00 0.00 57 1007.2
20260503234507 59 360 5.0 16.0 0.00 0.00 0.00 57 1007.1
20260503234007 59 360 7.0 20.0 0.00 0.00 0.00 56 1007.2
20260503233529 59 360 7.0 15.0 0.00 0.00 0.00 56 1007.2
20260503233007 59 360 7.0 23.0 0.00 0.00 0.00 56 1007.1
20260503232507 60 360 7.0 19.0 0.00 0.00 0.00 55 1007.2
20260503232007 60 360 8.0 20.0 0.00 0.00 0.00 55 1007.2
20260503231507 60 360 7.0 19.0 0.00 0.00 0.00 55 1007.1
20260503231006 60 360 6.0 16.0 0.00 0.00 0.00 55 1007.1
20260503230507 60 360 6.0 16.0 0.00 0.00 0.00 55 1007.2
20260503230028 60 360 7.0 23.0 0.00 0.00 0.00 53 1007.3
20260503225528 60 360 5.0 29.0 0.00 0.00 0.00 55 1007.4
20260503225007 60 360 5.0 13.0 0.00 0.00 0.00 55 1007.3
20260503224507 60 360 7.0 21.0 0.00 0.00 0.00 53 1007.3
20260503224007 60 360 6.0 24.0 0.00 0.00 0.00 53 1007.4
20260503223507 60 360 8.0 29.0 0.00 0.00 0.00 53 1007.5
20260503223007 60 360 11.0 27.0 0.00 0.00 0.00 52 1007.5
20260503222506 60 360 9.0 29.0 0.00 0.00 0.00 53 1007.5
20260503222007 60 360 8.0 23.0 0.00 0.00 0.00 53 1007.6
20260503221507 60 360 7.0 20.0 0.00 0.00 0.00 53 1007.5
20260503221007 60 360 7.0 19.0 0.00 0.00 0.00 53 1007.5
20260503220507 60 360 7.0 21.0 0.00 0.00 0.00 55 1007.6
20260503220007 60 360 7.0 21.0 0.00 0.00 0.00 53 1007.6
20260503215507 60 360 8.0 19.0 0.00 0.00 0.00 53 1007.6
20260503215007 60 360 8.0 28.0 0.00 0.00 0.00 53 1007.6
20260503214507 59 360 6.0 24.0 0.00 0.00 0.00 53 1007.7
20260503214007 59 360 5.0 15.0 0.00 0.00 0.00 55 1007.8
20260503213507 59 360 6.0 21.0 0.00 0.00 0.00 53 1007.7
20260503213007 59 360 8.0 20.0 0.00 0.00 0.00 53 1007.6
20260503212528 59 360 7.0 20.0 0.00 0.00 0.00 53 1007.7
20260503212028 59 360 6.0 13.0 0.00 0.00 0.00 53 1007.8
20260503211507 59 360 7.0 16.0 0.00 0.00 0.00 53 1007.7
20260503211007 59 360 6.0 21.0 0.00 0.00 0.00 52 1007.7
20260503210507 59 360 5.0 19.0 0.00 0.00 0.00 53 1007.7
20260503210008 59 360 5.0 16.0 0.00 0.00 0.00 53 1007.7
20260503205507 59 360 5.0 17.0 0.00 0.00 0.00 53 1007.6
20260503205007 59 360 5.0 12.0 0.00 0.00 0.00 52 1007.8
20260503204528 59 360 6.0 11.0 0.00 0.00 0.00 52 1007.9
20260503204007 59 360 7.0 20.0 0.00 0.00 0.00 52 1007.9
20260503203507 59 360 5.0 16.0 0.00 0.00 0.00 53 1008.1
20260503203007 59 360 5.0 8.0 0.00 0.00 0.00 53 1008.1
20260503202506 59 360 7.0 19.0 0.00 0.00 0.00 53 1008.2
20260503202007 59 360 7.0 20.0 0.00 0.00 0.00 52 1008.2
20260503201507 59 360 8.0 19.0 0.00 0.00 0.00 52 1008.3
20260503201007 59 360 9.0 20.0 0.00 0.00 0.00 52 1008.2
20260503200528 59 360 7.0 19.0 0.00 0.00 0.00 51 1008.3
20260503200006 59 360 6.0 19.0 0.00 0.00 0.00 51 1008.3
20260503195507 59 360 6.0 13.0 0.00 0.00 0.00 52 1008.4
20260503195006 59 360 8.0 19.0 0.00 0.00 0.00 52 1008.4
20260503194507 59 360 9.0 21.0 0.00 0.00 0.00 52 1008.7
20260503194007 60 360 11.0 24.0 0.00 0.00 0.00 51 1008.6
20260503193506 60 360 9.0 25.0 0.00 0.00 0.00 50 1008.5
20260503193006 60 360 6.0 19.0 0.00 0.00 0.00 51 1008.5
20260503192507 60 360 7.0 19.0 0.00 0.00 0.00 51 1008.5
20260503192028 60 360 8.0 20.0 0.00 0.00 0.00 50 1008.6
20260503191527 60 360 7.0 23.0 0.00 0.00 0.00 50 1008.7
20260503191007 59 360 6.0 19.0 0.00 0.00 0.00 53 1008.8
20260503190506 59 360 7.0 17.0 0.00 0.00 0.00 53 1009.0
20260503190028 59 360 8.0 20.0 0.00 0.00 0.00 55 1009.0
20260503185506 59 360 9.0 27.0 0.00 0.00 0.00 33 1009.2
20260503185006 59 360 9.0 23.0 0.00 0.00 0.00 33 1009.3
20260503184506 58 360 10.0 20.0 0.00 0.00 0.00 56 1009.4
20260503184007 58 360 9.0 28.0 0.00 0.00 0.00 56 1009.4
20260503183506 59 360 8.0 25.0 0.00 0.00 0.00 56 1009.5
20260503183006 59 360 8.0 25.0 0.00 0.00 0.00 56 1009.5
20260503182507 59 360 7.0 16.0 0.00 0.00 0.00 56 1009.5
20260503182006 59 360 8.0 21.0 0.00 0.00 0.00 55 1009.4
20260503181507 60 360 7.0 27.0 0.00 0.00 0.00 53 1009.4
20260503181006 60 360 5.0 16.0 0.00 0.00 0.00 51 1009.4
20260503180506 60 360 6.0 15.0 0.00 0.00 0.00 52 1009.4
20260503180006 60 360 7.0 19.0 0.00 0.00 0.00 51 1009.5
20260503175506 61 360 7.0 17.0 0.00 0.00 0.00 52 1009.4
20260503175006 61 360 7.0 17.0 0.00 0.00 0.00 49 1009.5
20260503174506 62 354 8.0 19.0 0.00 0.00 0.00 28 1009.5
20260503174028 62 330 8.0 19.0 0.00 0.00 0.00 49 1009.4
20260503173528 63 292 6.0 13.0 0.00 0.00 0.00 48 1009.4
20260503173027 63 289 6.0 17.0 0.00 0.00 0.00 28 1009.4
20260503172506 63 283 8.0 15.0 0.00 0.00 0.00 30 1009.4
20260503172006 63 279 9.0 23.0 0.00 0.00 0.00 27 1009.6
20260503171506 63 290 6.0 15.0 0.00 0.00 0.00 51 1009.6
20260503171006 63 292 6.0 13.0 0.00 0.00 0.00 30 1009.7
20260503170506 63 284 6.0 20.0 0.00 0.00 0.00 49 1009.8
20260503151006 56 351 5.0 16.0 0.00 0.00 0.00 59 1011.1
20260503150507 56 350 4.0 15.0 0.00 0.00 0.00 59 1011.1
20260503131006 46 279 3.0 8.0 0.00 0.00 0.00 70 1012.2
20260503130527 45 302 2.0 7.0 0.00 0.00 0.00 72 1012.2
20260503110527 32 0 0.0 0.0 0.00 0.00 0.00 82 1012.7